This is the latest recevied weather packets stored in our database for station/object NK7I. If no packets are shown the sender has not sent any weather packets the latest 10 day(s).
| Time | Temp. | Humidity | Pressure | Rain* | Wind** | Luminosity | Snow |
|---|---|---|---|---|---|---|---|
| 1777758382 | 23.33° C | 46% | 1013.7 hPa | 0 mm | - | 1120 W/m² | - |
| 1777758082 | 22.78° C | 39% | 1013.8 hPa | 0 mm | - | 1197 W/m² | - |
| 1777757782 | 22.78° C | 42% | 1013.8 hPa | 0 mm | - | 990 W/m² | - |
| 1777757482 | 22.78° C | 42% | 1013.9 hPa | 0 mm | - | 629 W/m² | - |
| 1777757183 | 22.78° C | 42% | 1014 hPa | 0 mm | - | 441 W/m² | - |
| 1777756882 | 23.33° C | 42% | 1014 hPa | 0 mm | - | 427 W/m² | - |
| 1777756582 | 23.33° C | 40% | 1014 hPa | 0 mm | - | 441 W/m² | - |
| 1777756282 | 23.33° C | 43% | 1014.1 hPa | 0 mm | - | 506 W/m² | - |
| 1777755982 | 23.33° C | 42% | 1014.1 hPa | 0 mm | - | 1229 W/m² | - |
| 1777755682 | 22.78° C | 38% | 1014.1 hPa | 0 mm | - | 1399 W/m² | - |
| 1777755382 | 22.78° C | 40% | 1014.1 hPa | 0 mm | - | 1385 W/m² | - |
| 1777755082 | 22.78° C | 47% | 1014.2 hPa | 0 mm | - | 1354 W/m² | - |
| 1777754782 | 22.22° C | 40% | 1014.2 hPa | 0 mm | - | 636 W/m² | - |
| 1777754482 | 22.22° C | 40% | 1014.3 hPa | 0 mm | - | 652 W/m² | - |
| 1777754184 | 22.22° C | 46% | 1014.4 hPa | 0 mm | - | 991 W/m² | - |
| 1777753883 | 22.22° C | 46% | 1014.4 hPa | 0 mm | - | 1243 W/m² | - |
| 1777753583 | 22.22° C | 46% | 1014.6 hPa | 0 mm | - | 1252 W/m² | - |
| 1777753282 | 22.22° C | 44% | 1014.6 hPa | 0 mm | - | 1260 W/m² | - |
| 1777752982 | 22.22° C | 45% | 1014.6 hPa | 0 mm | - | 1276 W/m² | - |
| 1777752683 | 22.22° C | 49% | 1014.8 hPa | 0 mm | - | 1294 W/m² | - |
| 1777752382 | 21.67° C | 50% | 1014.9 hPa | 0 mm | - | 1281 W/m² | - |
| 1777752082 | 21.67° C | 43% | 1014.9 hPa | 0 mm | - | 1259 W/m² | - |
| 1777751782 | 21.67° C | 48% | 1014.9 hPa | 0 mm | - | 1255 W/m² | - |
| 1777751482 | 21.67° C | 44% | 1015 hPa | 0 mm | - | 1294 W/m² | - |
| 1777751183 | 21.67° C | 44% | 1015.1 hPa | 0 mm | - | 1324 W/m² | - |
* Rain latest hour (hover to see other rain measurements)
** Current wind speed in m/s (hover to see current wind gust speed)